Content
SEND FEEDBACK

Daily
Averages
Monthly
Summary
United States of America

NEWARK, OHIO


Home > North America > United States > Ohio
Elevation: 902 feet     Latitude: 40 04N     Longitude: 082 25W

WEATHER
 
SELECT A DAY
Number of Records: 215,715;   Date Range: 7/1/96 - 8/30/14
 
SHARE

PRINT THIS DATA

[ ← Previous Day ]
WEATHER ALMANAC - JANUARY 31, 2013
[ Next Day → ]
[ °C ]   °F
Weather ElementAverageHighLow
Temperature25.8 °F34 °F (12:53 am)21 °F (11:53 pm)
Dewpoint18.3 °F26.6 °F (12:22 am)10.9 °F (11:53 am)
Humidity73.6 %88 % (7:53 pm)56 % (2:53 pm)
Barometer29.82 in29.94 in (11:53 pm)29.47 in (12:22 am)
Wind Speed15.3 mph28.8 mph (1:53 am)
Wind Gust41.4 mph (1:53 am)
Weather ElementAverage
Visibility4.8 mi
Wind DirectionWNW (282 °)

Weather ElementTotal
Precipitation0.05 in
Heating Degree Days37.5 (Base 65)
Averaged from 75 records on January 31, 2013
WEATHER CONDITIONS BREAKOUT
WIND DIRECTION BREAKOUT
WEATHER BY HOUR - JANUARY 31, 2013
[ °C ]   °F
Local TimeTemperatureDewpointHumidityBarometerVisibilityWind DirectionWind SpeedGust SpeedPrecipitationEventsConditions
12:22 AM33.8 °F26.6 °F75 %29.47 in10.0 miWest (270°)19.6 mph31.1 mphOvercast
12:53 AM34.0 °F26.1 °F73 %29.50 in10.0 miWest (270°)16.1 mph29.9 mphOvercast
1:46 AM33.8 °F24.8 °F70 %29.54 in10.0 miWest (270°)21.9 mph33.4 mphOvercast
1:53 AM33.1 °F25.0 °F72 %29.55 in10.0 miWest (270°)28.8 mph41.4 mphOvercast
2:53 AM32.0 °F23.0 °F69 %29.59 in10.0 miWest (280°)20.7 mph31.1 mph0.00 inOvercast
3:24 AM30.2 °F21.2 °F69 %29.60 in10.0 miWest (280°)16.1 mph27.6 mph0.00 inOvercast
3:42 AM30.2 °F21.2 °F69 %29.61 in5.0 miWest (270°)18.4 mph28.8 mph0.00 inSnowLight Snow
3:53 AM30.0 °F23.0 °F75 %29.63 in4.0 miWest (280°)19.6 mph34.5 mph0.00 inSnowLight Snow
4:53 AM28.9 °F21.0 °F72 %29.67 in5.0 miWest (280°)26.5 mph38.0 mph0.00 inSnowLight Snow
5:24 AM28.4 °F17.6 °F64 %29.67 in10.0 miWest (270°)19.6 mph38.0 mph0.00 inOvercast
5:44 AM28.4 °F19.4 °F69 %29.68 in4.0 miWest (260°)23.0 mph31.1 mph0.00 inSnowLight Snow
5:53 AM27.0 °F19.0 °F72 %29.70 in2.5 miWest (270°)20.7 mph29.9 mph0.00 inSnowLight Snow
6:07 AM26.6 °F19.4 °F74 %29.70 in1.8 miWest (280°)18.4 mph31.1 mph0.00 inSnowLight Snow
6:14 AM26.6 °F19.4 °F74 %29.70 in2.5 miWest (280°)19.6 mph32.2 mph0.00 inSnowLight Snow
6:19 AM26.6 °F17.6 °F69 %29.71 in6.0 miWest (270°)19.6 mph32.2 mph0.00 inSnowLight Snow
6:53 AM26.1 °F17.1 °F69 %29.74 in9.0 miWest (270°)18.4 mph25.3 mph0.00 inOvercast
7:09 AM26.6 °F17.6 °F69 %29.73 in9.0 miWest (270°)18.4 mph26.5 mph0.00 inSnowLight Snow
7:27 AM24.8 °F17.6 °F74 %29.74 in4.0 miWest (280°)12.7 mph23.0 mph0.00 inSnowLight Snow
7:32 AM24.8 °F17.6 °F74 %29.75 in1.8 miWest (270°)20.7 mph31.1 mph0.00 inSnowLight Snow
7:42 AM24.8 °F17.6 °F74 %29.75 in2.5 miWest (270°)18.4 mph31.1 mph0.00 inSnowLight Snow
7:46 AM24.8 °F17.6 °F74 %29.76 in8.0 miWest (270°)21.9 mph31.1 mph0.00 inSnowLight Snow
7:53 AM25.0 °F15.1 °F66 %29.78 in9.0 miWest (280°)21.9 mph33.4 mph0.00 inOvercast
8:53 AM25.0 °F14.0 °F63 %29.81 in9.0 miWest (270°)17.3 mph28.8 mph0.00 inOvercast
9:20 AM24.8 °F15.8 °F69 %29.80 in2.5 miWest (270°)15.0 mph26.5 mph0.00 inSnowLight Snow
9:22 AM24.8 °F17.6 °F74 %29.80 in1.8 miWest (280°)13.8 mph26.5 mph0.00 inSnowLight Snow
9:28 AM24.8 °F17.6 °F74 %29.81 in0.8 miWest (280°)17.3 mph27.6 mph0.00 inSnowLight Snow
9:49 AM24.8 °F17.6 °F74 %29.82 in1.2 miWest (280°)17.3 mph27.6 mph0.00 inSnowLight Snow
9:53 AM24.1 °F18.0 °F77 %29.84 in1.8 miWest (280°)19.6 mph27.6 mph0.00 inSnowLight Snow
10:00 AM24.8 °F15.8 °F69 %29.82 in2.5 miWest (280°)17.3 mph27.6 mph0.00 inSnowLight Snow
10:07 AM24.8 °F15.8 °F69 %29.82 in4.0 miWest (280°)13.8 mph27.6 mph0.00 inSnowLight Snow
10:34 AM24.8 °F15.8 °F69 %29.84 in2.5 miWest (280°)16.1 mph28.8 mph0.00 inSnowLight Snow
10:37 AM24.8 °F15.8 °F69 %29.84 in1.8 miWest (280°)19.6 mph28.8 mph0.00 inSnowLight Snow
10:40 AM24.8 °F15.8 °F69 %29.84 in0.8 miWest (280°)16.1 mph28.8 mph0.00 inSnowLight Snow
10:53 AM23.0 °F17.1 °F78 %29.88 in1.5 miWest (270°)21.9 mph34.5 mph0.00 inSnowLight Snow
11:06 AM24.8 °F14.0 °F64 %29.87 in2.5 miWest (270°)19.6 mph36.8 mph0.00 inSnowLight Snow
11:13 AM24.8 °F12.2 °F59 %29.87 in9.0 miWNW (290°)17.3 mph36.8 mph0.00 inOvercast
11:53 AM24.1 °F10.9 °F57 %29.91 in10.0 miWest (280°)17.3 mph34.5 mph0.00 inOvercast
12:53 PM25.0 °F12.9 °F60 %29.89 in8.0 miWest (260°)13.8 mph26.5 mphOvercast
1:20 PM24.8 °F15.8 °F69 %29.87 in1.8 miWest (270°)20.7 mph31.1 mph0.00 inSnowLight Snow
1:33 PM26.6 °F15.8 °F64 %29.86 in3.0 miWest (260°)18.4 mph26.5 mph0.00 inSnowLight Snow
1:53 PM28.0 °F17.1 °F63 %29.88 in8.0 miWSW (250°)15.0 mph21.9 mph0.00 inSnowLight Snow
2:53 PM28.0 °F14.0 °F56 %29.88 in10.0 miWest (270°)16.1 mph28.8 mph0.00 inOvercast
3:53 PM28.9 °F15.1 °F56 %29.89 in10.0 miWSW (250°)23.0 mph31.1 mphOvercast
4:53 PM28.0 °F15.1 °F58 %29.89 in10.0 miWest (260°)19.6 mph31.1 mphMostly Cloudy
5:53 PM28.0 °F14.0 °F56 %29.90 in10.0 miWest (260°)15.0 mph24.2 mphMostly Cloudy
6:53 PM28.0 °F17.1 °F63 %29.91 in10.0 miWNW (290°)16.1 mph23.0 mphOvercast
7:23 PM26.6 °F19.4 °F74 %29.88 in2.5 miWest (280°)10.4 mph18.4 mph0.00 inSnowLight Snow
7:27 PM26.6 °F19.4 °F74 %29.89 in2.0 miWNW (290°)8.1 mph16.1 mph0.00 inSnowLight Snow
7:29 PM26.6 °F21.2 °F80 %29.89 in1.8 miWest (270°)8.1 mph16.1 mph0.00 inSnowLight Snow
7:46 PM26.6 °F21.2 °F80 %29.89 in0.8 miWest (270°)10.4 mph0.00 inSnowLight Snow
7:53 PM25.0 °F21.9 °F88 %29.92 in1.0 miWest (270°)8.1 mph0.00 inSnowLight Snow
7:57 PM24.8 °F21.2 °F86 %29.89 in2.5 miWest (270°)8.1 mph0.00 inSnowLight Snow
8:04 PM24.8 °F21.2 °F86 %29.88 in9.0 miWest (280°)8.1 mph0.00 inSnowLight Snow
8:11 PM24.8 °F21.2 °F86 %29.89 in9.0 miWest (280°)8.1 mph0.00 inOvercast
8:27 PM24.8 °F21.2 °F86 %29.89 in2.5 miWest (280°)8.1 mph0.00 inSnowLight Snow
8:29 PM24.8 °F21.2 °F86 %29.89 in1.8 miWest (280°)6.9 mph0.00 inSnowLight Snow
8:43 PM24.8 °F21.2 °F86 %29.89 in2.5 miWNW (300°)6.9 mph0.00 inSnowLight Snow
8:51 PM24.8 °F21.2 °F86 %29.89 in7.0 miWNW (290°)8.1 mph0.00 inOvercast
8:53 PM25.0 °F21.0 °F85 %29.92 in9.0 miWNW (300°)9.2 mph0.00 inOvercast
9:13 PM24.8 °F21.2 °F86 %29.89 in2.5 miWNW (290°)6.9 mph0.00 inSnowLight Snow
9:15 PM24.8 °F21.2 °F86 %29.89 in1.8 miWNW (300°)6.9 mph0.01 inSnowLight Snow
9:20 PM24.8 °F21.2 °F86 %29.89 in0.8 miNW (320°)12.7 mph18.4 mph0.01 inSnowLight Snow
9:29 PM24.8 °F19.4 °F80 %29.90 in0.8 miWNW (300°)9.2 mph19.6 mph0.01 inSnowLight Snow
9:44 PM24.8 °F19.4 °F80 %29.90 in1.0 miNNW (330°)16.1 mph21.9 mph0.01 inSnowLight Snow
9:53 PM23.0 °F19.0 °F85 %29.92 in0.8 miNNW (330°)13.8 mph0.01 inSnowLight Snow
10:09 PM23.0 °F17.6 °F80 %29.88 in2.0 miWNW (290°)9.2 mph18.4 mph0.00 inSnowLight Snow
10:11 PM23.0 °F17.6 °F80 %29.88 in3.0 miWNW (290°)9.2 mph18.4 mph0.00 inSnowLight Snow
10:31 PM23.0 °F15.8 °F74 %29.89 in9.0 miNW (310°)10.4 mph0.00 inOvercast
10:53 PM23.0 °F16.0 °F74 %29.92 in10.0 miNW (310°)9.2 mph0.00 inOvercast
11:16 PM21.2 °F15.8 °F80 %29.90 in2.0 miNW (310°)12.7 mph0.00 inSnowLight Snow
11:21 PM21.2 °F15.8 °F80 %29.90 in2.5 miNW (310°)13.8 mph19.6 mph0.00 inSnowLight Snow
11:24 PM21.2 °F15.8 °F80 %29.90 in3.0 miNW (310°)12.7 mph19.6 mph0.00 inSnowLight Snow
11:39 PM21.2 °F15.8 °F80 %29.91 in2.5 miNW (310°)10.4 mph0.00 inSnowLight Snow
11:42 PM21.2 °F15.8 °F80 %29.91 in1.8 miNW (310°)12.7 mph20.7 mph0.00 inSnowLight Snow
11:53 PM21.0 °F15.1 °F78 %29.94 in1.5 miNW (320°)15.0 mph21.9 mph0.00 inSnowLight Snow
Hourly data recorded from KLHQ, located miles away from Newark, Ohio







STORIES FROM OUR PARTNERS